Time,TemperatureF,DewpointF,PressureIn,WindDirection,WindDirectionDegrees,WindSpeedMPH,WindSpeedGustMPH,Humidity,HourlyPrecipIn,Conditions,Clouds,dailyrainin,SoftwareType,DateUTC
2013-07-07 00:04:00,79.0,22.1,25.04,NW,305,2.0,4.5,12,0.00,,,-99.99,FreeWX 2.04,2013-07-07 06:04:00,
2013-07-07 00:09:00,78.6,21.7,25.04,North,-999,0.0,3.1,12,0.00,,,-99.99,FreeWX 2.04,2013-07-07 06:09:00,
2013-07-07 00:14:00,78.8,21.9,25.04,North,-999,0.0,3.6,12,0.00,,,-99.99,FreeWX 2.04,2013-07-07 06:14:00,
2013-07-07 00:19:00,78.8,21.9,25.04,NW,305,1.0,4.5,12,0.00,,,-99.99,FreeWX 2.04,2013-07-07 06:19:00,
2013-07-07 00:24:00,79.3,22.3,25.04,WNW,302,3.0,6.9,12,0.00,,,-99.99,FreeWX 2.04,2013-07-07 06:24:00,
2013-07-07 00:29:00,79.2,22.1,25.04,WNW,299,4.0,6.9,12,0.00,,,-99.99,FreeWX 2.04,2013-07-07 06:29:00,
2013-07-07 00:34:00,79.0,22.1,25.04,NW,309,4.0,6.3,12,0.00,,,-99.99,FreeWX 2.04,2013-07-07 06:34:00,
2013-07-07 00:39:00,78.6,21.7,25.04,WNW,298,3.0,5.8,12,0.00,,,-99.99,FreeWX 2.04,2013-07-07 06:39:00,
2013-07-07 00:44:00,78.6,21.7,25.04,WNW,283,2.0,4.5,12,0.00,,,-99.99,FreeWX 2.04,2013-07-07 06:44:00,
2013-07-07 00:49:00,78.4,21.6,25.04,WNW,301,2.0,5.4,12,0.00,,,-99.99,FreeWX 2.04,2013-07-07 06:49:00,
2013-07-07 00:54:00,78.3,21.6,25.04,NNW,330,3.0,4.9,12,0.00,,,-99.99,FreeWX 2.04,2013-07-07 06:54:00,
2013-07-07 00:59:00,78.1,21.4,25.04,NNW,345,3.0,4.9,12,0.00,,,-99.99,FreeWX 2.04,2013-07-07 06:59:00,
2013-07-07 01:04:00,77.9,21.2,25.04,North,350,4.0,6.3,12,0.00,,,-99.99,FreeWX 2.04,2013-07-07 07:04:00,
2013-07-07 01:10:00,77.7,23.0,25.04,North,2,4.0,6.7,13,0.00,,,-99.99,FreeWX 2.04,2013-07-07 07:10:00,
2013-07-07 01:15:00,77.4,22.6,25.04,North,11,2.0,4.5,13,0.00,,,-99.99,FreeWX 2.04,2013-07-07 07:15:00,
2013-07-07 01:20:00,77.0,22.5,25.04,North,-999,0.0,0.0,13,0.00,,,-99.99,FreeWX 2.04,2013-07-07 07:20:00,
2013-07-07 01:25:00,76.6,25.5,25.04,North,-999,0.0,3.1,15,0.00,,,-99.99,FreeWX 2.04,2013-07-07 07:25:00,
2013-07-07 01:30:00,76.1,29.5,25.04,NNE,23,1.0,4.5,18,0.00,,,-99.99,FreeWX 2.04,2013-07-07 07:30:00,
2013-07-07 01:35:00,75.7,33.1,25.04,North,350,4.0,6.9,21,0.00,,,-99.99,FreeWX 2.04,2013-07-07 07:35:00,
2013-07-07 01:40:00,75.9,33.1,25.04,NW,309,5.0,7.4,21,0.00,,,-99.99,FreeWX 2.04,2013-07-07 07:40:00,
2013-07-07 01:45:00,75.7,33.1,25.07,NW,304,5.0,6.9,21,0.00,,,-99.99,FreeWX 2.04,2013-07-07 07:45:00,
2013-07-07 01:50:00,75.9,33.1,25.07,NW,308,5.0,7.8,21,0.00,,,-99.99,FreeWX 2.04,2013-07-07 07:50:00,
2013-07-07 01:55:00,76.5,32.4,25.07,NW,326,4.0,6.9,20,0.00,,,-99.99,FreeWX 2.04,2013-07-07 07:55:00,
2013-07-07 02:00:00,75.6,32.9,25.04,NE,37,4.0,6.3,21,0.00,,,-99.99,FreeWX 2.04,2013-07-07 08:00:00,
2013-07-07 02:05:00,74.8,32.4,25.04,East,85,4.0,6.7,21,0.00,,,-99.99,FreeWX 2.04,2013-07-07 08:05:00,
2013-07-07 02:10:00,75.0,33.6,25.04,East,87,2.0,3.6,22,0.00,,,-99.99,FreeWX 2.04,2013-07-07 08:10:00,
2013-07-07 02:15:00,75.0,32.4,25.04,East,85,1.0,4.9,21,0.00,,,-99.99,FreeWX 2.04,2013-07-07 08:15:00,
2013-07-07 02:20:00,74.8,32.4,25.04,East,85,2.0,4.0,21,0.00,,,-99.99,FreeWX 2.04,2013-07-07 08:20:00,
2013-07-07 02:25:00,74.8,32.4,25.04,East,84,2.0,4.5,21,0.00,,,-99.99,FreeWX 2.04,2013-07-07 08:25:00,
2013-07-07 02:30:00,74.8,32.4,25.07,ENE,76,3.0,4.0,21,0.00,,,-99.99,FreeWX 2.04,2013-07-07 08:30:00,
2013-07-07 02:35:00,75.9,33.1,25.07,ENE,66,3.0,4.5,21,0.00,,,-99.99,FreeWX 2.04,2013-07-07 08:35:00,
2013-07-07 02:40:00,76.5,32.4,25.07,NNE,30,4.0,7.4,20,0.00,,,-99.99,FreeWX 2.04,2013-07-07 08:40:00,
2013-07-07 02:45:00,75.7,31.8,25.07,NNW,341,3.0,4.5,20,0.00,,,-99.99,FreeWX 2.04,2013-07-07 08:45:00,
2013-07-07 02:50:00,76.1,32.2,25.07,NNW,338,4.0,8.3,20,0.00,,,-99.99,FreeWX 2.04,2013-07-07 08:50:00,
2013-07-07 02:55:00,76.1,32.2,25.07,North,352,5.0,7.4,20,0.00,,,-99.99,FreeWX 2.04,2013-07-07 08:55:00,
2013-07-07 03:00:00,75.6,29.1,25.07,North,5,5.0,6.9,18,0.00,,,-99.99,FreeWX 2.04,2013-07-07 09:00:00,
2013-07-07 03:05:00,74.3,30.6,25.07,NNE,16,4.0,6.7,20,0.00,,,-99.99,FreeWX 2.04,2013-07-07 09:05:00,
2013-07-07 03:10:00,73.6,31.3,25.07,NNE,28,4.0,4.9,21,0.00,,,-99.99,FreeWX 2.04,2013-07-07 09:10:00,
2013-07-07 03:15:00,72.9,30.6,25.07,NNE,33,2.0,4.0,21,0.00,,,-99.99,FreeWX 2.04,2013-07-07 09:15:00,
2013-07-07 03:20:00,72.7,31.6,25.07,North,-999,0.0,3.6,22,0.00,,,-99.99,FreeWX 2.04,2013-07-07 09:20:00,
2013-07-07 03:25:00,72.9,31.8,25.07,North,-999,0.0,0.0,22,0.00,,,-99.99,FreeWX 2.04,2013-07-07 09:25:00,
2013-07-07 03:30:00,72.9,31.8,25.07,North,-999,0.0,0.0,22,0.00,,,-99.99,FreeWX 2.04,2013-07-07 09:30:00,
2013-07-07 03:35:00,73.0,32.0,25.07,North,-999,0.0,0.0,22,0.00,,,-99.99,FreeWX 2.04,2013-07-07 09:35:00,
2013-07-07 03:40:00,73.6,32.4,25.07,North,-999,0.0,3.6,22,0.00,,,-99.99,FreeWX 2.04,2013-07-07 09:40:00,
2013-07-07 03:45:00,72.9,31.8,25.07,NE,34,1.0,4.0,22,0.00,,,-99.99,FreeWX 2.04,2013-07-07 09:45:00,
2013-07-07 03:50:00,72.9,31.8,25.07,NNE,33,1.0,3.6,22,0.00,,,-99.99,FreeWX 2.04,2013-07-07 09:50:00,
2013-07-07 03:55:00,73.6,31.3,25.07,NNE,32,2.0,5.8,21,0.00,,,-99.99,FreeWX 2.04,2013-07-07 09:55:00,
2013-07-07 04:00:00,73.4,31.1,25.07,NNE,22,4.0,6.3,21,0.00,,,-99.99,FreeWX 2.04,2013-07-07 10:00:00,
2013-07-07 04:06:00,73.2,30.9,25.07,North,6,4.0,5.4,21,0.00,,,-99.99,FreeWX 2.04,2013-07-07 10:06:00,
2013-07-07 04:11:00,73.2,30.9,25.07,North,355,4.0,5.8,21,0.00,,,-99.99,FreeWX 2.04,2013-07-07 10:11:00,
2013-07-07 04:16:00,73.8,31.5,25.07,North,355,5.0,6.7,21,0.00,,,-99.99,FreeWX 2.04,2013-07-07 10:16:00,
2013-07-07 04:21:00,73.4,31.1,25.07,North,1,5.0,6.3,21,0.00,,,-99.99,FreeWX 2.04,2013-07-07 10:21:00,
2013-07-07 04:26:00,73.4,31.1,25.07,North,4,5.0,7.4,21,0.00,,,-99.99,FreeWX 2.04,2013-07-07 10:26:00,
2013-07-07 04:31:00,72.5,30.4,25.07,North,10,4.0,6.3,21,0.00,,,-99.99,FreeWX 2.04,2013-07-07 10:31:00,
2013-07-07 04:36:00,72.3,31.3,25.07,NNE,12,3.0,6.3,22,0.00,,,-99.99,FreeWX 2.04,2013-07-07 10:36:00,
2013-07-07 04:41:00,73.0,30.7,25.07,North,358,4.0,6.7,21,0.00,,,-99.99,FreeWX 2.04,2013-07-07 10:41:00,
2013-07-07 04:46:00,73.4,31.1,25.07,NNW,341,4.0,6.3,21,0.00,,,-99.99,FreeWX 2.04,2013-07-07 10:46:00,
2013-07-07 04:51:00,73.2,32.0,25.07,NNW,343,4.0,6.7,22,0.00,,,-99.99,FreeWX 2.04,2013-07-07 10:51:00,
2013-07-07 04:56:00,73.4,32.2,25.07,NNW,347,5.0,7.4,22,0.00,,,-99.99,FreeWX 2.04,2013-07-07 10:56:00,
2013-07-07 05:01:00,73.6,33.4,25.07,NNW,347,5.0,8.3,23,0.00,,,-99.99,FreeWX 2.04,2013-07-07 11:01:00,
2013-07-07 05:06:00,73.0,33.1,25.07,North,350,6.0,7.4,23,0.00,,,-99.99,FreeWX 2.04,2013-07-07 11:06:00,
2013-07-07 05:11:00,72.3,33.4,25.07,North,351,6.0,7.8,24,0.00,,,-99.99,FreeWX 2.04,2013-07-07 11:11:00,
2013-07-07 05:16:00,72.5,34.7,25.07,North,352,6.0,8.7,25,0.00,,,-99.99,FreeWX 2.04,2013-07-07 11:16:00,
2013-07-07 05:21:00,72.0,34.2,25.07,North,358,7.0,9.2,25,0.00,,,-99.99,FreeWX 2.04,2013-07-07 11:21:00,
2013-07-07 05:26:00,71.1,34.5,25.07,NNE,12,5.0,6.7,26,0.00,,,-99.99,FreeWX 2.04,2013-07-07 11:26:00,
2013-07-07 05:31:00,70.0,32.5,25.07,NNE,19,2.0,4.5,25,0.00,,,-99.99,FreeWX 2.04,2013-07-07 11:31:00,
2013-07-07 05:36:00,69.3,32.9,25.07,NNE,22,2.0,4.9,26,0.00,,,-99.99,FreeWX 2.04,2013-07-07 11:36:00,
2013-07-07 05:41:00,69.8,37.8,25.07,NNE,23,4.0,7.8,31,0.00,,,-99.99,FreeWX 2.04,2013-07-07 11:41:00,
2013-07-07 05:46:00,70.5,39.2,25.07,NNE,21,4.0,6.3,32,0.00,,,-99.99,FreeWX 2.04,2013-07-07 11:46:00,
2013-07-07 05:51:00,71.2,39.0,25.07,NNE,13,4.0,6.7,31,0.00,,,-99.99,FreeWX 2.04,2013-07-07 11:51:00,
2013-07-07 05:56:00,71.2,39.0,25.07,North,5,5.0,7.4,31,0.00,,,-99.99,FreeWX 2.04,2013-07-07 11:56:00,
2013-07-07 06:01:00,71.4,39.2,25.10,North,3,5.0,7.4,31,0.00,,,-99.99,FreeWX 2.04,2013-07-07 12:01:00,
2013-07-07 06:06:00,71.4,38.3,25.10,North,5,5.0,7.4,30,0.00,,,-99.99,FreeWX 2.04,2013-07-07 12:06:00,
2013-07-07 06:11:00,71.2,36.5,25.10,North,9,5.0,7.4,28,0.00,,,-99.99,FreeWX 2.04,2013-07-07 12:11:00,
2013-07-07 06:16:00,71.2,34.5,25.10,North,2,5.0,9.2,26,0.00,,,-99.99,FreeWX 2.04,2013-07-07 12:16:00,
2013-07-07 06:21:00,71.4,38.3,25.10,North,354,5.0,7.4,30,0.00,,,-99.99,FreeWX 2.04,2013-07-07 12:21:00,
2013-07-07 06:26:00,71.4,39.2,25.10,North,353,5.0,7.4,31,0.00,,,-99.99,FreeWX 2.04,2013-07-07 12:26:00,
2013-07-07 06:31:00,71.2,39.0,25.10,North,352,5.0,6.7,31,0.00,,,-99.99,FreeWX 2.04,2013-07-07 12:31:00,
2013-07-07 06:36:00,71.2,39.0,25.10,North,355,4.0,6.3,31,0.00,,,-99.99,FreeWX 2.04,2013-07-07 12:36:00,
2013-07-07 06:41:00,71.2,39.0,25.10,North,1,3.0,5.4,31,0.00,,,-99.99,FreeWX 2.04,2013-07-07 12:41:00,
2013-07-07 06:46:00,71.1,38.8,25.10,North,3,2.0,5.4,31,0.00,,,-99.99,FreeWX 2.04,2013-07-07 12:46:00,
2013-07-07 06:51:00,71.1,38.8,25.10,North,6,2.0,5.4,31,0.00,,,-99.99,FreeWX 2.04,2013-07-07 12:51:00,
2013-07-07 06:56:00,71.1,39.7,25.10,North,6,2.0,6.3,32,0.00,,,-99.99,FreeWX 2.04,2013-07-07 12:56:00,
2013-07-07 07:01:00,70.9,39.6,25.10,North,9,2.0,5.4,32,0.00,,,-99.99,FreeWX 2.04,2013-07-07 13:01:00,
2013-07-07 07:06:00,71.4,39.2,25.10,NNE,20,3.0,6.7,31,0.00,,,-99.99,FreeWX 2.04,2013-07-07 13:06:00,
2013-07-07 07:11:00,72.1,39.0,25.10,NNE,13,5.0,5.8,30,0.00,,,-99.99,FreeWX 2.04,2013-07-07 13:11:00,
2013-07-07 07:16:00,72.7,38.7,25.10,North,1,4.0,5.8,29,0.00,,,-99.99,FreeWX 2.04,2013-07-07 13:16:00,
2013-07-07 07:21:00,72.9,37.8,25.10,North,6,4.0,6.7,28,0.00,,,-99.99,FreeWX 2.04,2013-07-07 13:21:00,
2013-07-07 07:26:00,73.4,37.4,25.10,North,7,5.0,7.4,27,0.00,,,-99.99,FreeWX 2.04,2013-07-07 13:26:00,
2013-07-07 07:31:00,73.6,36.5,25.10,North,0,6.0,8.7,26,0.00,,,-99.99,FreeWX 2.04,2013-07-07 13:31:00,
2013-07-07 07:36:00,73.8,36.7,25.10,North,357,6.0,8.3,26,0.00,,,-99.99,FreeWX 2.04,2013-07-07 13:36:00,
2013-07-07 07:41:00,74.1,36.0,25.10,North,355,6.0,7.8,25,0.00,,,-99.99,FreeWX 2.04,2013-07-07 13:41:00,
2013-07-07 07:46:00,74.7,36.5,25.10,North,354,6.0,9.2,25,0.00,,,-99.99,FreeWX 2.04,2013-07-07 13:46:00,
2013-07-07 07:51:00,74.3,36.1,25.10,North,357,7.0,9.6,25,0.00,,,-99.99,FreeWX 2.04,2013-07-07 13:51:00,
2013-07-07 07:56:00,73.6,36.5,25.10,North,355,8.0,11.6,26,0.00,,,-99.99,FreeWX 2.04,2013-07-07 13:56:00,
2013-07-07 08:01:00,74.3,37.2,25.10,North,352,8.0,11.2,26,0.00,,,-99.99,FreeWX 2.04,2013-07-07 14:01:00,
2013-07-07 08:06:00,74.7,36.5,25.10,North,356,8.0,11.2,25,0.00,,,-99.99,FreeWX 2.04,2013-07-07 14:06:00,
2013-07-07 08:11:00,74.8,36.7,25.10,North,358,8.0,11.2,25,0.00,,,-99.99,FreeWX 2.04,2013-07-07 14:11:00,
2013-07-07 08:16:00,75.4,36.1,25.13,North,358,8.0,11.0,24,0.00,,,-99.99,FreeWX 2.04,2013-07-07 14:16:00,
2013-07-07 08:21:00,75.7,35.2,25.13,North,357,8.0,13.4,23,0.00,,,-99.99,FreeWX 2.04,2013-07-07 14:21:00,
2013-07-07 08:26:00,75.4,35.1,25.13,North,349,8.0,10.5,23,0.00,,,-99.99,FreeWX 2.04,2013-07-07 14:26:00,
2013-07-07 08:31:00,76.1,34.5,25.10,North,351,8.0,12.1,22,0.00,,,-99.99,FreeWX 2.04,2013-07-07 14:31:00,
2013-07-07 08:36:00,76.6,34.9,25.10,North,351,7.0,9.6,22,0.00,,,-99.99,FreeWX 2.04,2013-07-07 14:36:00,
2013-07-07 08:42:00,76.5,33.6,25.10,North,353,7.0,11.2,21,0.00,,,-99.99,FreeWX 2.04,2013-07-07 14:42:00,
2013-07-07 08:47:00,76.8,35.1,25.13,North,349,7.0,10.5,22,0.00,,,-99.99,FreeWX 2.04,2013-07-07 14:47:00,
2013-07-07 08:52:00,76.6,34.9,25.13,NNW,338,7.0,10.5,22,0.00,,,-99.99,FreeWX 2.04,2013-07-07 14:52:00,
2013-07-07 08:57:00,77.4,35.6,25.13,NNW,338,7.0,11.2,22,0.00,,,-99.99,FreeWX 2.04,2013-07-07 14:57:00,
2013-07-07 09:02:00,77.2,34.2,25.13,NNW,328,7.0,9.6,21,0.00,,,-99.99,FreeWX 2.04,2013-07-07 15:02:00,
2013-07-07 09:07:00,77.5,35.6,25.13,NW,326,6.0,9.2,22,0.00,,,-99.99,FreeWX 2.04,2013-07-07 15:07:00,
2013-07-07 09:12:00,77.9,34.9,25.13,NNW,330,5.0,9.6,21,0.00,,,-99.99,FreeWX 2.04,2013-07-07 15:12:00,
2013-07-07 09:17:00,77.7,35.8,25.13,NW,325,6.0,9.6,22,0.00,,,-99.99,FreeWX 2.04,2013-07-07 15:17:00,
2013-07-07 09:22:00,78.4,35.2,25.13,NW,326,6.0,10.1,21,0.00,,,-99.99,FreeWX 2.04,2013-07-07 15:22:00,
2013-07-07 09:27:00,78.8,35.6,25.13,NNW,340,6.0,10.5,21,0.00,,,-99.99,FreeWX 2.04,2013-07-07 15:27:00,
2013-07-07 09:32:00,77.9,34.9,25.13,NNW,344,6.0,9.2,21,0.00,,,-99.99,FreeWX 2.04,2013-07-07 15:32:00,
2013-07-07 09:37:00,78.6,35.4,25.13,NNW,336,6.0,8.7,21,0.00,,,-99.99,FreeWX 2.04,2013-07-07 15:37:00,
2013-07-07 09:42:00,79.3,36.0,25.13,NNW,336,6.0,10.1,21,0.00,,,-99.99,FreeWX 2.04,2013-07-07 15:42:00,
2013-07-07 09:47:00,79.5,34.9,25.10,NNW,335,6.0,9.6,20,0.00,,,-99.99,FreeWX 2.04,2013-07-07 15:47:00,
2013-07-07 09:52:00,79.9,35.2,25.10,NNW,342,6.0,8.3,20,0.00,,,-99.99,FreeWX 2.04,2013-07-07 15:52:00,
2013-07-07 09:57:00,79.9,35.2,25.10,North,350,6.0,9.6,20,0.00,,,-99.99,FreeWX 2.04,2013-07-07 15:57:00,
2013-07-07 10:02:00,79.7,35.1,25.13,NNW,337,6.0,9.6,20,0.00,,,-99.99,FreeWX 2.04,2013-07-07 16:02:00,
2013-07-07 10:07:00,79.9,35.2,25.13,NNW,331,6.0,9.6,20,0.00,,,-99.99,FreeWX 2.04,2013-07-07 16:07:00,
2013-07-07 10:12:00,80.4,34.3,25.13,NNW,333,5.0,7.8,19,0.00,,,-99.99,FreeWX 2.04,2013-07-07 16:12:00,
2013-07-07 10:17:00,80.6,34.5,25.13,NNW,328,5.0,7.4,19,0.00,,,-99.99,FreeWX 2.04,2013-07-07 16:17:00,
2013-07-07 10:22:00,81.7,31.1,25.13,NW,322,5.0,7.8,16,0.00,,,-99.99,FreeWX 2.04,2013-07-07 16:22:00,
2013-07-07 10:27:00,81.9,31.3,25.13,NW,316,4.0,7.4,16,0.00,,,-99.99,FreeWX 2.04,2013-07-07 16:27:00,
2013-07-07 10:32:00,82.9,32.2,25.10,NW,306,4.0,7.8,16,0.00,,,-99.99,FreeWX 2.04,2013-07-07 16:32:00,
2013-07-07 10:37:00,82.6,28.6,25.10,NW,320,4.0,7.4,14,0.00,,,-99.99,FreeWX 2.04,2013-07-07 16:37:00,
2013-07-07 10:42:00,83.1,23.2,25.10,NNW,340,5.0,7.8,11,0.00,,,-99.99,FreeWX 2.04,2013-07-07 16:42:00,
2013-07-07 10:47:00,83.5,27.5,25.10,NW,319,5.0,7.8,13,0.00,,,-99.99,FreeWX 2.04,2013-07-07 16:47:00,
2013-07-07 10:52:00,83.7,23.5,25.10,WNW,299,5.0,9.2,11,0.00,,,-99.99,FreeWX 2.04,2013-07-07 16:52:00,
2013-07-07 10:57:00,84.0,23.9,25.10,West,273,5.0,8.3,11,0.00,,,-99.99,FreeWX 2.04,2013-07-07 16:57:00,
2013-07-07 11:02:00,86.0,25.3,25.10,West,270,4.0,8.7,11,0.00,,,-99.99,FreeWX 2.04,2013-07-07 17:02:00,
2013-07-07 11:07:00,84.0,-99.9,25.10,NW,323,4.0,9.2,-999,0.00,,,-99.99,FreeWX 2.04,2013-07-07 17:07:00,
2013-07-07 11:12:00,84.4,-99.9,25.10,NNW,341,5.0,9.6,-999,0.00,,,-99.99,FreeWX 2.04,2013-07-07 17:12:00,
2013-07-07 11:17:00,84.9,-99.9,25.10,NNW,347,6.0,9.6,-999,0.00,,,-99.99,FreeWX 2.04,2013-07-07 17:17:00,
2013-07-07 11:22:00,85.6,-99.9,25.10,North,356,4.0,6.9,-999,0.00,,,-99.99,FreeWX 2.04,2013-07-07 17:22:00,
2013-07-07 11:27:00,85.3,-99.9,25.10,NW,324,3.0,7.8,-999,0.00,,,-99.99,FreeWX 2.04,2013-07-07 17:27:00,
2013-07-07 11:32:00,86.0,-99.9,25.10,WNW,294,4.0,8.3,-999,0.00,,,-99.99,FreeWX 2.04,2013-07-07 17:32:00,
2013-07-07 11:37:00,86.2,-99.9,25.10,West,271,4.0,7.8,-999,0.00,,,-99.99,FreeWX 2.04,2013-07-07 17:37:00,
2013-07-07 11:42:00,86.2,-99.9,25.10,WSW,237,3.0,8.7,-999,0.00,,,-99.99,FreeWX 2.04,2013-07-07 17:42:00,
2013-07-07 11:47:00,86.7,-99.9,25.10,West,264,2.0,5.8,-999,0.00,,,-99.99,FreeWX 2.04,2013-07-07 17:47:00,
2013-07-07 11:52:00,87.3,-99.9,25.10,WNW,282,3.0,12.5,-999,0.00,,,-99.99,FreeWX 2.04,2013-07-07 17:52:00,
2013-07-07 11:57:00,87.6,-99.9,25.10,WSW,250,4.0,9.2,-999,0.00,,,-99.99,FreeWX 2.04,2013-07-07 17:57:00,
2013-07-07 12:02:00,88.0,-99.9,25.10,SSW,196,4.0,7.4,-999,0.00,,,-99.99,FreeWX 2.04,2013-07-07 18:02:00,
2013-07-07 12:07:00,88.3,-99.9,25.10,WSW,238,4.0,11.6,-999,0.00,,,-99.99,FreeWX 2.04,2013-07-07 18:07:00,
2013-07-07 12:12:00,88.3,-99.9,25.10,West,280,5.0,7.4,-999,0.00,,,-99.99,FreeWX 2.04,2013-07-07 18:12:00,
2013-07-07 12:17:00,88.5,-99.9,25.10,WSW,253,6.0,14.3,-999,0.00,,,-99.99,FreeWX 2.04,2013-07-07 18:17:00,
2013-07-07 12:22:00,87.6,-99.9,25.10,West,263,6.0,11.6,-999,0.00,,,-99.99,FreeWX 2.04,2013-07-07 18:22:00,
2013-07-07 12:27:00,89.1,-99.9,25.10,West,265,5.0,8.7,-999,0.00,,,-99.99,FreeWX 2.04,2013-07-07 18:27:00,
2013-07-07 12:32:00,88.5,-99.9,25.07,WNW,285,5.0,10.5,-999,0.00,,,-99.99,FreeWX 2.04,2013-07-07 18:32:00,
2013-07-07 12:37:00,88.5,-99.9,25.07,NW,321,5.0,6.7,-999,0.00,,,-99.99,FreeWX 2.04,2013-07-07 18:37:00,
2013-07-07 12:42:00,89.1,-99.9,25.07,NW,321,4.0,7.4,-999,0.00,,,-99.99,FreeWX 2.04,2013-07-07 18:42:00,
2013-07-07 12:47:00,89.1,-99.9,25.07,NW,306,4.0,6.3,-999,0.00,,,-99.99,FreeWX 2.04,2013-07-07 18:47:00,
2013-07-07 12:52:00,90.1,-99.9,25.07,NW,319,4.0,9.2,-999,0.00,,,-99.99,FreeWX 2.04,2013-07-07 18:52:00,
2013-07-07 12:57:00,89.8,-99.9,25.07,West,263,5.0,13.4,-999,0.00,,,-99.99,FreeWX 2.04,2013-07-07 18:57:00,
2013-07-07 13:02:00,89.2,-99.9,25.07,WSW,239,7.0,11.0,-999,0.00,,,-99.99,FreeWX 2.04,2013-07-07 19:02:00,
2013-07-07 13:07:00,89.6,-99.9,25.07,WSW,241,7.0,11.6,-999,0.00,,,-99.99,FreeWX 2.04,2013-07-07 19:07:00,
2013-07-07 13:12:00,90.5,-99.9,25.07,SW,232,8.0,13.4,-999,0.00,,,-99.99,FreeWX 2.04,2013-07-07 19:12:00,
2013-07-07 13:17:00,90.0,-99.9,25.07,SSW,193,8.0,9.2,-999,0.00,,,-99.99,FreeWX 2.04,2013-07-07 19:17:00,
2013-07-07 13:22:00,89.8,-99.9,25.07,South,185,6.0,11.2,-999,0.00,,,-99.99,FreeWX 2.04,2013-07-07 19:22:00,
2013-07-07 13:27:00,90.5,-99.9,25.07,SSW,206,5.0,8.3,-999,0.00,,,-99.99,FreeWX 2.04,2013-07-07 19:27:00,
2013-07-07 13:32:00,91.0,-99.9,25.07,West,270,6.0,16.3,-999,0.00,,,-99.99,FreeWX 2.04,2013-07-07 19:32:00,
2013-07-07 13:37:00,91.4,-99.9,25.07,WSW,243,7.0,11.2,-999,0.00,,,-99.99,FreeWX 2.04,2013-07-07 19:37:00,
2013-07-07 13:42:00,90.9,-99.9,25.07,SW,219,6.0,11.6,-999,0.00,,,-99.99,FreeWX 2.04,2013-07-07 19:42:00,
2013-07-07 13:47:00,92.3,-99.9,25.04,SSW,205,4.0,7.4,-999,0.00,,,-99.99,FreeWX 2.04,2013-07-07 19:47:00,
2013-07-07 13:52:00,91.6,-99.9,25.04,SW,226,4.0,12.5,-999,0.00,,,-99.99,FreeWX 2.04,2013-07-07 19:52:00,
2013-07-07 13:57:00,91.0,-99.9,25.04,WSW,245,6.0,10.5,-999,0.00,,,-99.99,FreeWX 2.04,2013-07-07 19:57:00,
2013-07-07 14:02:00,91.9,-99.9,25.04,WSW,253,5.0,9.2,-999,0.00,,,-99.99,FreeWX 2.04,2013-07-07 20:02:00,
2013-07-07 14:07:00,92.1,-99.9,25.04,WNW,292,5.0,8.3,-999,0.00,,,-99.99,FreeWX 2.04,2013-07-07 20:07:00,
2013-07-07 14:12:00,92.5,-99.9,25.04,WNW,299,5.0,11.2,-999,0.00,,,-99.99,FreeWX 2.04,2013-07-07 20:12:00,
2013-07-07 14:17:00,91.6,-99.9,25.04,WNW,286,6.0,13.9,-999,0.00,,,-99.99,FreeWX 2.04,2013-07-07 20:17:00,
2013-07-07 14:22:00,92.3,-99.9,25.04,NNW,330,5.0,6.9,-999,0.00,,,-99.99,FreeWX 2.04,2013-07-07 20:22:00,
2013-07-07 14:27:00,92.3,-99.9,25.04,NW,304,6.0,13.9,-999,0.00,,,-99.99,FreeWX 2.04,2013-07-07 20:27:00,
2013-07-07 14:32:00,93.0,-99.9,25.04,West,278,5.0,7.8,-999,0.00,,,-99.99,FreeWX 2.04,2013-07-07 20:32:00,
2013-07-07 14:37:00,91.4,-99.9,25.04,West,261,5.0,10.5,-999,0.00,,,-99.99,FreeWX 2.04,2013-07-07 20:37:00,
2013-07-07 14:43:00,90.7,-99.9,25.04,West,262,5.0,10.1,-999,0.00,,,-99.99,FreeWX 2.04,2013-07-07 20:43:00,
2013-07-07 14:48:00,90.9,-99.9,25.01,WNW,289,4.0,9.6,-999,0.00,,,-99.99,FreeWX 2.04,2013-07-07 20:48:00,
2013-07-07 14:53:00,91.6,-99.9,25.01,WNW,296,4.0,7.4,-999,0.00,,,-99.99,FreeWX 2.04,2013-07-07 20:53:00,
2013-07-07 14:58:00,91.4,-99.9,25.01,WSW,242,5.0,8.3,-999,0.00,,,-99.99,FreeWX 2.04,2013-07-07 20:58:00,
2013-07-07 15:03:00,92.3,-99.9,25.01,SSW,208,5.0,8.7,-999,0.00,,,-99.99,FreeWX 2.04,2013-07-07 21:03:00,
2013-07-07 15:08:00,93.4,-99.9,25.01,WSW,242,6.0,10.5,-999,0.00,,,-99.99,FreeWX 2.04,2013-07-07 21:08:00,
2013-07-07 15:13:00,92.8,-99.9,25.01,WSW,240,7.0,12.5,-999,0.00,,,-99.99,FreeWX 2.04,2013-07-07 21:13:00,
2013-07-07 15:18:00,93.2,-99.9,25.01,SW,236,7.0,14.8,-999,0.00,,,-99.99,FreeWX 2.04,2013-07-07 21:18:00,
2013-07-07 15:23:00,93.0,-99.9,25.01,SW,232,9.0,14.3,-999,0.00,,,-99.99,FreeWX 2.04,2013-07-07 21:23:00,
2013-07-07 15:28:00,92.8,-99.9,25.01,SSW,211,10.0,15.9,-999,0.00,,,-99.99,FreeWX 2.04,2013-07-07 21:28:00,
2013-07-07 15:33:00,92.1,-99.9,25.01,SW,214,9.0,12.5,-999,0.00,,,-99.99,FreeWX 2.04,2013-07-07 21:33:00,
2013-07-07 15:38:00,92.1,-99.9,25.01,SW,223,7.0,15.2,-999,0.00,,,-99.99,FreeWX 2.04,2013-07-07 21:38:00,
2013-07-07 15:43:00,91.6,-99.9,25.01,SSW,196,8.0,13.0,-999,0.00,,,-99.99,FreeWX 2.04,2013-07-07 21:43:00,
2013-07-07 15:48:00,91.6,-99.9,25.01,SSW,194,8.0,17.2,-999,0.00,,,-99.99,FreeWX 2.04,2013-07-07 21:48:00,
2013-07-07 15:53:00,92.3,-99.9,25.01,SSW,202,7.0,11.2,-999,0.00,,,-99.99,FreeWX 2.04,2013-07-07 21:53:00,
2013-07-07 15:58:00,91.2,-99.9,25.01,SW,225,7.0,11.2,-999,0.00,,,-99.99,FreeWX 2.04,2013-07-07 21:58:00,
2013-07-07 16:03:00,91.2,-99.9,24.98,WSW,255,7.0,11.6,-999,0.00,,,-99.99,FreeWX 2.04,2013-07-07 22:03:00,
2013-07-07 16:08:00,91.6,-99.9,24.98,WSW,256,7.0,11.2,-999,0.00,,,-99.99,FreeWX 2.04,2013-07-07 22:08:00,
2013-07-07 16:13:00,91.6,-99.9,24.98,West,264,7.0,11.6,-999,0.00,,,-99.99,FreeWX 2.04,2013-07-07 22:13:00,
2013-07-07 16:18:00,92.3,-99.9,24.98,West,275,7.0,11.6,-999,0.00,,,-99.99,FreeWX 2.04,2013-07-07 22:18:00,
2013-07-07 16:23:00,93.2,-99.9,24.98,West,266,6.0,10.1,-999,0.00,,,-99.99,FreeWX 2.04,2013-07-07 22:23:00,
2013-07-07 16:28:00,93.0,-99.9,24.98,WSW,250,6.0,12.5,-999,0.00,,,-99.99,FreeWX 2.04,2013-07-07 22:28:00,
2013-07-07 16:33:00,93.9,-99.9,24.98,WSW,239,7.0,12.1,-999,0.00,,,-99.99,FreeWX 2.04,2013-07-07 22:33:00,
2013-07-07 16:38:00,93.9,-99.9,24.98,WSW,248,7.0,10.1,-999,0.00,,,-99.99,FreeWX 2.04,2013-07-07 22:38:00,
2013-07-07 16:43:00,93.7,-99.9,24.98,WSW,255,7.0,13.4,-999,0.00,,,-99.99,FreeWX 2.04,2013-07-07 22:43:00,
2013-07-07 16:48:00,93.2,-99.9,24.98,WSW,256,8.0,15.9,-999,0.00,,,-99.99,FreeWX 2.04,2013-07-07 22:48:00,
2013-07-07 16:53:00,93.4,-99.9,24.98,WSW,254,7.0,12.5,-999,0.00,,,-99.99,FreeWX 2.04,2013-07-07 22:53:00,
2013-07-07 16:58:00,93.4,-99.9,24.98,WSW,239,7.0,12.5,-999,0.00,,,-99.99,FreeWX 2.04,2013-07-07 22:58:00,
2013-07-07 17:03:00,93.7,-99.9,24.98,SW,219,8.0,12.5,-999,0.00,,,-99.99,FreeWX 2.04,2013-07-07 23:03:00,
2013-07-07 17:08:00,92.7,-99.9,24.98,SSW,193,8.0,11.6,-999,0.00,,,-99.99,FreeWX 2.04,2013-07-07 23:08:00,
2013-07-07 17:13:00,91.6,-99.9,24.98,South,179,8.0,13.9,-999,0.00,,,-99.99,FreeWX 2.04,2013-07-07 23:13:00,
2013-07-07 17:18:00,91.4,-99.9,24.98,South,173,7.0,8.7,-999,0.00,,,-99.99,FreeWX 2.04,2013-07-07 23:18:00,
2013-07-07 17:23:00,91.4,-99.9,24.98,South,177,6.0,8.3,-999,0.00,,,-99.99,FreeWX 2.04,2013-07-07 23:23:00,
2013-07-07 17:28:00,91.2,-99.9,24.98,SSW,192,6.0,9.2,-999,0.00,,,-99.99,FreeWX 2.04,2013-07-07 23:28:00,
2013-07-07 17:33:00,90.7,-99.9,24.98,South,190,6.0,10.1,-999,0.00,,,-99.99,FreeWX 2.04,2013-07-07 23:33:00,
2013-07-07 17:38:00,90.3,-99.9,24.98,South,174,6.0,7.8,-999,0.00,,,-99.99,FreeWX 2.04,2013-07-07 23:38:00,
2013-07-07 17:43:00,90.1,-99.9,24.98,SSE,167,6.0,6.9,-999,0.00,,,-99.99,FreeWX 2.04,2013-07-07 23:43:00,
2013-07-07 17:48:00,89.8,-99.9,24.98,SSE,161,6.0,8.3,-999,0.00,,,-99.99,FreeWX 2.04,2013-07-07 23:48:00,
2013-07-07 17:53:00,87.8,-99.9,24.98,SSE,152,9.0,24.2,-999,0.00,,,-99.99,FreeWX 2.04,2013-07-07 23:53:00,
2013-07-07 17:58:00,83.3,36.7,24.98,SE,140,13.0,21.9,19,0.00,,,-99.99,FreeWX 2.04,2013-07-07 23:58:00,
2013-07-07 18:03:00,81.9,38.1,24.98,SE,131,11.0,14.3,21,0.00,,,-99.99,FreeWX 2.04,2013-07-08 00:03:00,
2013-07-07 18:08:00,81.5,40.1,24.98,SE,141,7.0,9.6,23,0.00,,,-99.99,FreeWX 2.04,2013-07-08 00:08:00,
2013-07-07 18:13:00,81.1,39.7,24.98,SE,138,8.0,15.9,23,0.00,,,-99.99,FreeWX 2.04,2013-07-08 00:13:00,
2013-07-07 18:18:00,82.0,37.0,24.98,ESE,115,9.0,17.2,20,0.00,,,-99.99,FreeWX 2.04,2013-07-08 00:18:00,
2013-07-07 18:23:00,80.4,36.9,24.98,ESE,109,10.0,22.4,21,0.00,,,-99.99,FreeWX 2.04,2013-07-08 00:23:00,
2013-07-07 18:28:00,79.2,35.8,24.98,ESE,104,12.0,22.4,21,0.00,,,-99.99,FreeWX 2.04,2013-07-08 00:28:00,
2013-07-07 18:33:00,79.3,38.3,24.98,SE,128,13.0,24.2,23,0.00,,,-99.99,FreeWX 2.04,2013-07-08 00:33:00,
2013-07-07 18:38:00,82.2,37.2,24.98,South,174,10.0,21.9,20,0.00,,,-99.99,FreeWX 2.04,2013-07-08 00:38:00,
2013-07-07 18:43:00,77.4,49.8,24.98,ESE,119,7.0,10.5,38,0.00,,,-99.99,FreeWX 2.04,2013-07-08 00:43:00,
2013-07-07 18:48:00,74.8,53.2,24.98,East,96,4.0,6.3,47,0.00,,,-99.99,FreeWX 2.04,2013-07-08 00:48:00,
2013-07-07 18:53:00,74.7,61.2,24.98,East,81,3.0,6.3,63,0.00,,,-99.99,FreeWX 2.04,2013-07-08 00:53:00,
2013-07-07 18:58:00,74.8,60.1,24.95,East,89,3.0,6.7,60,0.00,,,-99.99,FreeWX 2.04,2013-07-08 00:58:00,
2013-07-07 19:03:00,75.6,59.2,24.95,East,91,2.0,4.9,57,0.00,,,-99.99,FreeWX 2.04,2013-07-08 01:03:00,
2013-07-07 19:08:00,76.8,56.1,24.95,East,80,2.0,4.0,49,0.00,,,-99.99,FreeWX 2.04,2013-07-08 01:08:00,
2013-07-07 19:13:00,77.9,54.1,24.95,East,93,3.0,10.1,44,0.00,,,-99.99,FreeWX 2.04,2013-07-08 01:13:00,
2013-07-07 19:18:00,78.3,57.6,24.95,SE,129,6.0,11.6,49,0.00,,,-99.99,FreeWX 2.04,2013-07-08 01:18:00,
2013-07-07 19:23:00,77.5,57.4,24.95,SSE,156,7.0,11.6,50,0.00,,,-99.99,FreeWX 2.04,2013-07-08 01:23:00,
2013-07-07 19:28:00,78.6,54.1,24.98,SSE,158,6.0,15.2,43,0.00,,,-99.99,FreeWX 2.04,2013-07-08 01:28:00,
2013-07-07 19:33:00,81.7,46.2,24.98,SSE,151,7.0,14.3,29,0.00,,,-99.99,FreeWX 2.04,2013-07-08 01:33:00,
2013-07-07 19:38:00,82.0,41.7,24.98,SSE,167,9.0,15.4,24,0.00,,,-99.99,FreeWX 2.04,2013-07-08 01:38:00,
2013-07-07 19:43:00,81.7,40.3,24.98,South,173,9.0,13.0,23,0.00,,,-99.99,FreeWX 2.04,2013-07-08 01:43:00,
2013-07-07 19:48:00,81.9,40.5,24.98,SSE,162,9.0,13.9,23,0.00,,,-99.99,FreeWX 2.04,2013-07-08 01:48:00,
2013-07-07 19:53:00,81.9,38.1,24.98,SE,146,9.0,14.3,21,0.00,,,-99.99,FreeWX 2.04,2013-07-08 01:53:00,
2013-07-07 19:58:00,82.0,38.3,25.01,SE,134,7.0,12.1,21,0.00,,,-99.99,FreeWX 2.04,2013-07-08 01:58:00,
2013-07-07 20:03:00,81.9,38.1,25.01,SE,132,8.0,15.2,21,0.00,,,-99.99,FreeWX 2.04,2013-07-08 02:03:00,
2013-07-07 20:09:00,82.0,37.0,25.01,ESE,119,9.0,14.3,20,0.00,,,-99.99,FreeWX 2.04,2013-07-08 02:09:00,
2013-07-07 20:14:00,81.1,38.7,25.04,East,83,10.0,24.2,22,0.00,,,-99.99,FreeWX 2.04,2013-07-08 02:14:00,
2013-07-07 20:19:00,81.1,37.4,25.04,ENE,70,13.0,24.8,21,0.00,,,-99.99,FreeWX 2.04,2013-07-08 02:19:00,
2013-07-07 20:24:00,84.0,23.9,25.04,ENE,66,13.0,23.7,11,0.00,,,-99.99,FreeWX 2.04,2013-07-08 02:24:00,
2013-07-07 20:29:00,81.3,36.3,25.04,NE,51,10.0,12.5,20,0.00,,,-99.99,FreeWX 2.04,2013-07-08 02:29:00,
2013-07-07 20:34:00,79.5,37.4,25.04,NNE,32,7.0,13.4,22,0.00,,,-99.99,FreeWX 2.04,2013-07-08 02:34:00,
2013-07-07 20:39:00,78.6,40.8,25.04,NNE,29,8.0,14.3,26,0.00,,,-99.99,FreeWX 2.04,2013-07-08 02:39:00,
2013-07-07 20:44:00,76.8,44.8,25.07,NE,43,9.0,14.3,32,0.00,,,-99.99,FreeWX 2.04,2013-07-08 02:44:00,
2013-07-07 20:49:00,75.2,46.4,25.07,NE,46,9.0,14.8,36,0.00,,,-99.99,FreeWX 2.04,2013-07-08 02:49:00,
2013-07-07 20:54:00,75.9,43.2,25.07,NE,40,9.0,16.8,31,0.00,,,-99.99,FreeWX 2.04,2013-07-08 02:54:00,
2013-07-07 20:59:00,75.4,45.9,25.07,ENE,58,9.0,13.0,35,0.00,,,-99.99,FreeWX 2.04,2013-07-08 02:59:00,
2013-07-07 21:04:00,75.4,45.0,25.07,East,87,9.0,14.8,34,0.00,,,-99.99,FreeWX 2.04,2013-07-08 03:04:00,
2013-07-07 21:09:00,75.2,44.1,25.07,East,85,11.0,19.0,33,0.00,,,-99.99,FreeWX 2.04,2013-07-08 03:09:00,
2013-07-07 21:14:00,75.7,43.7,25.10,East,87,12.0,20.1,32,0.00,,,-99.99,FreeWX 2.04,2013-07-08 03:14:00,
2013-07-07 21:19:00,72.3,49.1,25.10,ESE,116,14.0,27.1,44,0.00,,,-99.99,FreeWX 2.04,2013-07-08 03:19:00,
2013-07-07 21:24:00,71.8,49.3,25.10,SE,125,16.0,29.5,45,0.00,,,-99.99,FreeWX 2.04,2013-07-08 03:24:00,
2013-07-07 21:29:00,73.4,46.2,25.10,ESE,121,16.0,27.1,38,0.00,,,-99.99,FreeWX 2.04,2013-07-08 03:29:00,
2013-07-07 21:34:00,73.8,45.1,25.10,ESE,121,19.0,35.6,36,0.00,,,-99.99,FreeWX 2.04,2013-07-08 03:34:00,
2013-07-07 21:39:00,72.9,46.4,25.10,ESE,113,21.0,33.3,39,0.00,,,-99.99,FreeWX 2.04,2013-07-08 03:39:00,
2013-07-07 21:44:00,71.4,47.7,25.13,ESE,119,17.0,22.8,43,0.00,,,-99.99,FreeWX 2.04,2013-07-08 03:44:00,
2013-07-07 21:49:00,70.7,47.7,25.13,SE,127,17.0,25.7,44,0.00,,,-99.99,FreeWX 2.04,2013-07-08 03:49:00,
2013-07-07 21:54:00,70.9,47.8,25.13,SE,129,17.0,25.7,44,0.00,,,-99.99,FreeWX 2.04,2013-07-08 03:54:00,
2013-07-07 21:59:00,69.1,49.6,25.10,SE,142,17.0,25.7,50,0.00,,,-99.99,FreeWX 2.04,2013-07-08 03:59:00,
2013-07-07 22:04:00,68.2,51.8,25.10,SSE,164,17.0,22.4,56,0.00,,,-99.99,FreeWX 2.04,2013-07-08 04:04:00,
2013-07-07 22:09:00,68.2,52.3,25.10,SSE,168,14.0,17.7,57,0.00,,,-99.99,FreeWX 2.04,2013-07-08 04:09:00,
2013-07-07 22:14:00,68.2,52.9,25.13,SSE,157,10.0,13.4,58,0.00,,,-99.99,FreeWX 2.04,2013-07-08 04:14:00,
2013-07-07 22:19:00,68.9,51.1,25.13,SSE,151,4.0,5.8,53,0.00,,,-99.99,FreeWX 2.04,2013-07-08 04:19:00,
2013-07-07 22:24:00,70.0,51.6,25.13,North,-999,0.0,4.9,52,0.00,,,-99.99,FreeWX 2.04,2013-07-08 04:24:00,
2013-07-07 22:29:00,70.7,48.9,25.13,North,-999,0.0,4.5,46,0.00,,,-99.99,FreeWX 2.04,2013-07-08 04:29:00,
2013-07-07 22:34:00,70.5,51.4,25.13,North,-999,0.0,0.0,51,0.00,,,-99.99,FreeWX 2.04,2013-07-08 04:34:00,
2013-07-07 22:39:00,70.9,49.6,25.13,SSE,156,1.0,10.1,47,0.00,,,-99.99,FreeWX 2.04,2013-07-08 04:39:00,
2013-07-07 22:44:00,69.8,51.8,25.13,WSW,254,5.0,11.0,53,0.00,,,-99.99,FreeWX 2.04,2013-07-08 04:44:00,
2013-07-07 22:49:00,69.1,54.1,25.13,West,260,7.0,10.1,59,0.00,,,-99.99,FreeWX 2.04,2013-07-08 04:49:00,
2013-07-07 22:54:00,68.7,53.8,25.13,WSW,241,6.0,8.3,59,0.00,,,-99.99,FreeWX 2.04,2013-07-08 04:54:00,
2013-07-07 22:59:00,69.1,54.1,25.13,SSW,212,6.0,9.6,59,0.00,,,-99.99,FreeWX 2.04,2013-07-08 04:59:00,
2013-07-07 23:04:00,68.4,54.3,25.13,SSE,163,7.0,9.2,61,0.00,,,-99.99,FreeWX 2.04,2013-07-08 05:04:00,
2013-07-07 23:09:00,68.2,55.0,25.13,ESE,123,6.0,7.8,63,0.00,,,-99.99,FreeWX 2.04,2013-07-08 05:09:00,
2013-07-07 23:14:00,68.0,54.9,25.13,East,96,5.0,6.9,63,0.00,,,-99.99,FreeWX 2.04,2013-07-08 05:14:00,
2013-07-07 23:19:00,68.0,54.5,25.13,East,90,4.0,6.7,62,0.00,,,-99.99,FreeWX 2.04,2013-07-08 05:19:00,
2013-07-07 23:24:00,68.0,54.0,25.13,East,95,1.0,4.0,61,0.00,,,-99.99,FreeWX 2.04,2013-07-08 05:24:00,
2013-07-07 23:29:00,68.0,54.9,25.13,East,90,1.0,4.9,63,0.00,,,-99.99,FreeWX 2.04,2013-07-08 05:29:00,
2013-07-07 23:34:00,68.4,54.9,25.13,ENE,75,1.0,4.0,62,0.00,,,-99.99,FreeWX 2.04,2013-07-08 05:34:00,
2013-07-07 23:39:00,68.2,55.0,25.13,ENE,61,2.0,5.8,63,0.00,,,-99.99,FreeWX 2.04,2013-07-08 05:39:00,
2013-07-07 23:44:00,68.0,55.4,25.13,NE,49,2.0,4.0,64,0.00,,,-99.99,FreeWX 2.04,2013-07-08 05:44:00,
2013-07-07 23:49:00,67.8,56.1,25.13,North,-999,0.0,0.0,66,0.00,,,-99.99,FreeWX 2.04,2013-07-08 05:49:00,
2013-07-07 23:54:00,67.3,55.6,25.13,North,-999,0.0,0.0,66,0.00,,,-99.99,FreeWX 2.04,2013-07-08 05:54:00,
2013-07-07 23:59:00,67.3,55.0,25.13,North,-999,0.0,2.7,65,0.00,,,-99.99,FreeWX 2.04,2013-07-08 05:59:00,